Regional Weather Roundup
Issued by NWS

Home | Current Version | Previous Version | Text Only | Print | Product List | Glossary Off
Versions: 1 2 3 4 5 6 7 8 9 10 11 12 13 14 15 16 17 18 19 20 21 22 23 24 25 26 27 28 29 30 31 32 33 34 35 36 37 38 39 40 41 42 43 44 45 46 47 48 49 50

000
ASUS43 KLSX 230457
RWRMO

WEATHER SUMMARY FOR MISSOURI
NATIONAL WEATHER SERVICE SPRINGFIELD MO
1200 AM CDT MON OCT 23 2017

NOTE: "FAIR" INDICATES FEW OR NO CLOUDS BELOW 12,000 FEET WITH NO
       SIGNIFICANT WEATHER AND/OR OBSTRUCTIONS TO VISIBILITY.
       CURRENT SKY AND/OR WEATHER CONDITIONS ARE NOT AVAILABLE FOR
       CHILLICOTHE AND FARMINGTON.

MOZ001>031-035>038-043-044-053-054-230600-
...NORTHERN AND WESTERN MISSOURI...

CITY           SKY/WX    TMP DP  RH WIND       PRES   REMARKS
KANSAS CTY INT CLEAR     43  39  86 S9        30.04F
LEE`S SUMMIT   CLEAR     49  41  74 S5        30.05F
ST JOSEPH      CLEAR     41  41 100 CALM      30.04F
CHILLICOTHE      N/A     45  44  97 CALM      30.05F

$$
MOZ066>068-077>081-088>096-101>105-230600-
...SOUTHWEST MISSOURI...

CITY           SKY/WX    TMP DP  RH WIND       PRES   REMARKS
SPRINGFIELD    CLOUDY    50  49  96 W3        30.07F
JOPLIN         CLEAR     46  46 100 MISG      30.10S

$$
MOZ032>034-039>042-045>050-055>058-069>072-230600-
...CENTRAL MISSOURI...

CITY           SKY/WX    TMP DP  RH WIND       PRES   REMARKS
COLUMBIA       NOT AVBL
JEFFERSON CITY CLOUDY    53  50  89 CALM      30.06F
ROLLA          CLOUDY    50  50 100 NW8       30.05F
SEDALIA        PTCLDY    48  48 100 S5        30.07S
WARRENSBURG    CLEAR     41  39  93 CALM      30.06F

$$
MOZ051-052-059>065-230600-
...EAST CENTRAL MISSOURI...

CITY           SKY/WX    TMP DP  RH WIND       PRES   REMARKS
ST LOUIS INTL  LGT RAIN  52  52 100 NW10      30.01F FOG
SPIRIT OF STL  LGT RAIN  54  52  94 NW7       30.01F

$$
MOZ072>076-082>087-097>100-106>115-230600-
...SOUTH CENTRAL AND SOUTHEAST MISSOURI...

CITY           SKY/WX    TMP DP  RH WIND       PRES   REMARKS
CAPE GIRARDEAU CLOUDY    54  52  93 NW8       29.94R
POPLAR BLUFF   CLOUDY    54  52  93 NW10      29.97F
WEST PLAINS    CLOUDY    50  48  93 W5        30.05F

$$


USA.gov is the U.S. government's official web portal to all federal, state and local government web resources and services.